{"data":{"norad_id":66945,"epoch":"2026-09-20T03:47:37.197888Z","epoch_age_seconds":110793,"freshness":"FRESH","line1":"1 66945U 25286W   26263.15806942  .00025639  00000+0  76719-3 0  9994","line2":"2 66945  53.1581 171.4156 0001144  98.2389 261.8743 15.34407255 45241","mean_motion":15.34407255,"eccentricity":0.0001144,"inclination_deg":53.1581,"raan_deg":171.4156,"arg_perigee_deg":98.2389,"mean_anomaly_deg":261.8743,"bstar":0.00076719,"rev_number":4524,"period_min":93.84731434941,"perigee_km":461.89908724651,"apogee_km":463.46426655978,"semimajor_km":6840.8186769031,"source":"CELESTRAK","updated_at":"2026-09-21T09:00:36.060124Z"}}